|   |  | Asteroid 2013 RE6
					
					
					
					
						
					
					
						
							(Preview) 
						
							
								The 140 - 310 metre wide asteroid 2013 RE6 will make a close pass (65.1 lunar distances, 0.1673 AU), travelling at 7.90 km/second, to the Earth-Moon system on the 31st May 2014 @ 00:31 UT ±00:02. See more The Lunar Distance (LD), the distance between Earth and the Moon, equals 384,401 km, (or 0.00256 AU... | Blobrana | 0 |  |  | 
		
			
			
				
				
					|   |  | Asteroid 2003 YH111
					
					
					
					
						
					
					
						
							(Preview) 
						
							
								The 33 - 75 metre wide asteroid 2003 YH111 will make a close pass (41.6 lunar distances, 0.1070 AU), travelling at 10.80 km/second, to the Earth-Moon system on the 31st May 2014 @ 07:15 UT ±1 day 10:02. See more The Lunar Distance (LD), the distance between Earth and the Moon, equals 384,401 km, (or 0.00...  | Blobrana | 0 |  |  | 
		
			
			
				
				
					|   |  | Asteroid 2014 KT76
					
					
					
					
						
					
					
						
							(Preview) 
						
							
								Orbital elements:
2014 KT76                                           PHA, Earth MOID = 0.0093 AU
Epoch 2014 May 23.0 TT = JDT 2456800.5                  MPC
M  17.90800              (2000.0)            P               Q
n   0.21575455     Peri.  297.38360     -0.82656077     -0.56154595
a   2.7531470      Node   208.50252     +0.54057102     -0.77307917
e   0.7347500      Incl.    4.59810     +0.15678096     -0.29498262
P   4.57           H   20... | Blobrana | 0 |  |  | 
		
			
			
				
				
					|   |  | Asteroid 2014 KF46
					
					
					
					
						
					
					
						
							(Preview) 
						
							
								The 13 - 30 metre wide asteroid 2014 KF46 will make a close pass (1.6 lunar distances, 0.0041 AU), travelling at 17.08 km/second, to the Earth-Moon system on the 29th May 2014 @ 00:24 UT ±00:01. See more  The Lunar Distance (LD), the distance between Earth and the Moon, equals 384,401 km, (or 0.00256 AU)... | Blobrana | 0 |  |  | 
		
			
			
				
				
					|   |  | Asteroid 2014 KZ45
					
					
					
					
						
					
					
						
							(Preview) 
						
							
								Orbital elements:
2014 KZ45                                           PHA, Earth MOID = 0.0014 AU
Epoch 2014 May 23.0 TT = JDT 2456800.5                  MPC
M 290.73858              (2000.0)            P               Q
n   0.52245926     Peri.  231.34864     +0.97380084     +0.10445093
a   1.5267494      Node   121.77901     -0.04677625     +0.96128101
e   0.4053044      Incl.   13.74594     -0.22253966     +0.25500749
P   1.89           H... | Blobrana | 0 |  |  | 
		
			
			
				
				
					|   |  | VK0B682
					
					
					
					
						
					
					
						
							(Preview) 
						
							
								Ephemeris Date       UT   *  R.A. (J2000) Decl.  Elong.  Mag
2014 05 27 12     14 41 57.6 -14 21 07 156.6  18.6
2014 05 27 13     14 43 28.7 -14 12 20 156.8  18.5
2014 05 27 14     14 45 08.7 -14 02 39 157.1  18.4
2014 05 27 15     14 46 59.0 -13 51 54 157.4  18.3
2014 05 27 16     14 49 01.4 -13 39 54 157.7  18.2
2014 05 27 17     14 51 17.8 -13 26 25 158.1  18... | Blobrana | 2 |  |  | 
		
			
			
				
				
					|   |  | Asteroid 2014 JE15
					
					
					
					
						
					
					
						
							(Preview) 
						
							
								The 23 - 51 metre wide asteroid 2014 JE15 will make a close pass (41.1 lunar distances, 0.1057 AU), travelling at 5.70 km/second, to the Earth-Moon system on the 28th May 2014 @ 02:27 UT ±00:14.  See more The Lunar Distance (LD), the distance between Earth and the Moon, equals 384,401 km, (or 0.00256 AU... | Blobrana | 0 |  |  | 
		
			
			
				
				
					|   |  | Asteroid 2014 KM22
					
					
					
					
						
					
					
						
							(Preview) 
						
							
								The 12 - 27 metre wide asteroid 2014 KM22 will make a close pass (18.7 lunar distances, 0.0480 AU), travelling at 4.35 km/second, to the Earth-Moon system on the 28th May 2014 @ 08:37 UT ±00:20.  See more The Lunar Distance (LD), the distance between Earth and the Moon, equals 384,401 km, (or 0.00256 AU... | Blobrana | 0 |  |  | 
		
			
			
				
				
					|   |  | Asteroid 2014 GD45
					
					
					
					
						
					
					
						
							(Preview) 
						
							
								The 180 - 410 metre wide asteroid 2014 GD45 will make a close pass (62.7 lunar distances, 0.1611 AU), travelling at 6.99 km/second, to the Earth-Moon system on the 28th May 2014 @ 11:17 UT ±00:01.  See more The Lunar Distance (LD), the distance between Earth and the Moon, equals 384,401 km, (or 0.00256...  | Blobrana | 0 |  |  | 
		
			
			
				
				
					|   |  | Asteroid 2014 KF22
					
					
					
					
						
					
					
						
							(Preview) 
						
							
								The 14 - 30 metre wide asteroid 2014 KF22 will make a close pass (2.7 lunar distances, 0.0068 AU), travelling at 10.68 km/second, to the Earth-Moon system on the 28th May 2014 @ 14:28 UT ±00:01.  See more The Lunar Distance (LD), the distance between Earth and the Moon, equals 384,401 km, (or 0.00256 AU... | Blobrana | 0 |  |  | 
		
			
			
				
				
					|   |   | Asteroids 2014 KS40
					
					
					
					
						
					
					
						
							(Preview) 
						
							
								Orbital elements:
2014 KS40                                           PHA, Earth MOID = 0.0465 AU
Epoch 2014 May 23.0 TT = JDT 2456800.5                  MPC
M 355.36263              (2000.0)            P               Q
n   0.28305625     Peri.    4.57134     -0.24161205     +0.96916338
a   2.2973168      Node   251.45278     -0.89191158     -0.24146153
e   0.5380417      Incl.    2.92844     -0.38225300     -0.04918003
P   3.48           H   22.... | Blobrana | 0 |  |  | 
		
			
			
				
				
					|   |  | Asteroid 2014 HM2
					
					
					
					
						
					
					
						
							(Preview) 
						
							
								The 110 - 240 metre wide asteroid 2014 HM2 will make a close pass (39.9 lunar distances, 0.1024 AU), travelling at 6.64 km/second, to the Earth-Moon system on the 27th May 2014 @ 10:08 UT ±00:01.  See more The Lunar Distance (LD), the distance between Earth and the Moon, equals 384,401 km, (or 0.00256 A... | Blobrana | 0 |  |  | 
		
			
			
				
				
					|   |  | Asteroid 2014 GH35
					
					
					
					
						
					
					
						
							(Preview) 
						
							
								The 130 - 300 metre wide asteroid 2014 GH35 will make a close pass (54.3 lunar distances, 0.1396 AU), travelling at 10.45 km/second, to the Earth-Moon system on the 27th May 2014 @ 10:27 UT ±00:01.  See more The Lunar Distance (LD), the distance between Earth and the Moon, equals 384,401 km, (or 0.0025...  | Blobrana | 0 |  |  | 
		
			
			
				
				
					|   |  | Asteroid 2014 HW177
					
					
					
					
						
					
					
						
							(Preview) 
						
							
								The 70 - 160 metre wide asteroid 2014 HW177 will make a close pass (69.5 lunar distances, 0.1786 AU), travelling at 9.25 km/second, to the Earth-Moon system on the 25th May 2014 @ 02:42 UT ±00:11.  See more The Lunar Distance (LD), the distance between Earth and the Moon, equals 384,401 km, (or 0.00256...  | Blobrana | 0 |  |  | 
		
			
			
				
				
					|   |  | Asteroid 2014 FN33
					
					
					
					
						
					
					
						
							(Preview) 
						
							
								The 170 - 370 metre wide asteroid 2014 FN33 will make a close pass (56.6 lunar distances, 0.1455 AU), travelling at 5.46 km/second, to the Earth-Moon system on the 25th May 2014 @ 05:03 UT ±00:01.  See more The Lunar Distance (LD), the distance between Earth and the Moon, equals 384,401 km, (or 0.00256...  | Blobrana | 0 |  |  |